Wind_Speed
44 44 43 44 44 45 45 45 44 44 45 45 45 46 46 47 47 47 47 48 48 49 49 50 51 52 52 52 53 53 53 54 53 51 50 51 52 53 53 52 52 53 53
45 45 45 45 45 46 46 46 46 46 45 45 46 46 47 47 47 47 48 48 49 49 50 51 51 52 53 53 53 53 53 53 52 50 50 50 50 51 51 52 52 53 53
45 46 46 46 46 46 46 46 47 47 46 46 46 47 47 47 48 48 48 48 49 50 51 51 51 52 52 53 53 53 52 51 50 50 50 49 50 51 51 52 52 52 52
45 45 46 46 47 47 47 47 47 47 47 47 47 47 48 48 48 49 49 49 50 50 51 51 51 51 52 52 52 52 51 50 51 51 50 51 51 51 51 51 51 51 51
45 45 45 46 46 46 47 47 47 47 47 47 47 48 48 49 49 49 50 51 51 51 51 50 50 51 51 51 50 50 51 51 52 51 51 51 51 51 51 52 51 50 50
44 44 44 44 44 45 45 46 46 47 47 48 48 48 49 49 50 50 51 51 52 51 50 50 50 50 50 50 50 50 50 51 52 52 52 52 51 51 51 51 51 50 50
44 44 43 44 44 45 46 46 47 47 48 48 48 49 49 50 50 50 51 51 51 50 50 50 49 50 50 50 50 51 51 52 52 52 52 51 51 51 51 51 50 50 50
44 44 44 44 45 45 46 46 47 48 48 49 49 49 49 50 51 51 51 50 49 49 50 50 50 49 49 50 51 50 50 50 50 51 51 50 50 51 51 50 50 50 50
45 45 45 45 46 46 46 46 47 48 48 48 49 49 49 49 50 50 50 49 49 49 49 49 49 50 50 51 50 50 49 49 49 49 50 50 50 50 50 50 50 49 49
45 45 46 46 46 47 46 47 47 47 48 48 49 49 50 49 49 49 49 49 49 49 49 49 49 50 50 50 49 49 48 48 48 48 49 49 49 49 49 49 49 49 48
45 45 45 45 45 46 46 46 46 46 47 48 48 49 49 49 48 48 48 48 48 48 48 48 49 49 49 48 48 47 47 47 47 48 48 48 47 48 48 48 48 47 46
44 44 44 44 44 45 46 46 45 46 46 47 47 47 47 46 46 47 47 46 46 46 47 47 47 46 46 46 46 45 45 46 46 46 47 47 47 47 47 47 47 46 45
42 42 43 43 43 43 44 44 45 46 46 46 46 45 44 45 45 45 45 45 45 45 45 45 45 45 45 45 44 44 45 45 45 46 46 46 46 46 46 45 44 43 43
42 42 42 43 43 44 44 44 45 45 45 45 44 44 44 44 45 44 43 44 44 43 43 43 44 44 44 44 44 43 44 44 44 44 44 44 44 44 43 42 41 40 40
42 42 42 42 42 43 43 44 44 45 45 44 43 42 42 43 42 43 43 42 42 42 42 42 42 42 42 43 43 43 43 42 42 42 42 42 41 41 40 39 38 38 38
40 41 41 41 42 42 42 42 42 42 42 42 42 41 41 41 41 41 40 40 40 40 40 40 40 41 42 42 42 41 41 41 40 40 40 39 38 37 37 37 37 37 37
39 39 39 39 39 40 40 41 41 40 40 40 40 40 39 38 38 38 38 38 39 39 39 40 40 40 41 40 39 39 39 38 38 37 36 36 35 35 35 35 36 36 36
38 38 38 38 38 38 38 38 39 38 38 38 37 37 37 37 37 37 36 37 37 37 38 39 39 39 39 38 37 37 36 35 35 35 34 34 34 34 34 34 35 35 34
37 37 37 37 37 37 37 37 36 36 35 35 35 35 35 35 35 36 36 36 36 36 36 37 36 36 36 35 35 34 33 33 33 32 32 32 33 33 33 34 34 33 33
36 36 36 36 36 35 35 34 34 33 33 33 33 33 33 34 34 34 35 35 34 33 34 33 33 33 33 33 32 32 31 32 31 31 31 32 32 32 33 33 33 33 32
34 34 34 34 33 33 32 31 31 31 31 31 31 32 32 32 32 33 33 32 31 31 31 31 31 31 31 31 30 30 31 31 31 31 31 31 31 32 33 33 32 31 31
30 31 31 31 30 30 29 29 28 28 29 29 30 30 30 30 30 30 30 30 30 30 29 29 29 29 29 29 29 30 30 30 31 31 31 31 31 32 32 32 31 30 29
28 29 29 29 29 28 28 28 28 27 27 28 28 28 28 28 28 28 28 28 28 28 28 28 28 28 29 29 29 29 29 30 30 30 29 30 30 31 31 30 29 27 26
27 27 27 27 27 27 27 27 27 27 27 27 27 27 27 27 27 27 27 27 27 27 27 27 27 27 28 28 28 29 29 29 29 29 29 29 29 29 28 27 26 24 23
26 26 25 25 25 25 26 26 26 26 26 26 26 26 26 26 26 26 26 26 26 26 26 26 26 27 27 28 28 28 28 28 28 27 27 27 27 26 25 24 23 22 21
24 23 23 23 24 24 24 24 24 24 25 25 25 25 25 25 25 26 26 26 26 26 25 26 26 26 26 26 27 27 27 26 26 26 26 25 24 24 22 21 20 19 18
Wind_Direction
250 252 254 256 258 259 261 263 265 266 267 269 270 271 272 274 275 276 278 279 280 282 284 285 286 286 287 288 289 289 290 291 292 292 292 293 294 294 294 295 295 295 296
252 254 255 257 259 260 262 264 265 267 268 269 270 271 273 274 275 277 278 279 281 282 284 285 286 287 288 288 288 289 291 292 292 292 294 294 294 295 295 295 296 296 296
252 254 256 257 259 261 263 264 265 266 268 270 271 272 273 274 276 277 278 280 281 283 285 285 286 287 288 288 288 289 290 291 292 293 294 295 295 295 295 295 296 297 297
253 255 256 258 260 262 263 265 266 267 268 270 271 272 273 274 275 277 278 280 282 284 285 285 286 287 287 288 289 289 289 290 291 293 294 295 295 295 295 296 296 297 297
254 256 257 259 261 262 264 265 266 267 269 270 272 272 273 274 276 277 278 280 282 284 285 285 286 287 287 288 288 288 289 289 291 292 294 295 295 295 296 296 296 296 296
254 256 258 260 262 263 264 266 267 268 269 270 272 273 274 275 276 278 279 280 282 283 284 285 286 287 286 287 287 288 290 291 292 293 294 294 295 296 296 296 296 296 296
255 257 259 261 263 264 265 266 268 269 269 271 272 273 274 275 276 278 279 281 282 282 284 285 286 286 286 286 287 288 290 291 292 293 294 294 295 296 296 296 296 297 298
255 257 259 261 263 265 266 267 268 269 270 271 272 274 275 275 277 278 279 281 281 282 284 285 286 286 286 286 287 288 290 291 292 293 294 294 295 296 297 297 297 298 299
256 258 259 261 263 265 266 268 269 270 271 272 273 274 275 276 277 278 279 279 280 282 284 285 285 285 286 287 288 289 289 290 291 293 294 295 296 297 298 298 298 299 299
256 258 260 262 264 265 266 268 270 271 271 272 273 274 275 276 277 277 278 279 280 282 283 284 285 286 287 288 288 289 290 290 291 293 294 295 296 297 298 299 300 300 300
257 258 260 262 264 266 267 269 271 272 273 273 274 275 276 276 277 277 278 279 280 281 282 283 285 286 287 287 289 290 290 291 292 294 295 296 297 298 299 300 300 300 300
258 259 261 263 265 267 269 270 272 273 274 275 276 276 276 276 276 277 278 280 280 281 282 283 285 286 287 288 289 290 290 291 293 294 295 296 297 298 299 299 299 299 299
258 260 262 263 265 268 269 271 273 274 275 276 276 275 275 274 275 276 278 279 280 282 283 284 285 286 286 288 289 290 291 292 293 295 296 297 298 298 298 299 299 299 300
258 260 262 264 266 268 270 272 273 274 275 275 275 274 273 273 275 276 277 279 280 282 283 284 285 286 287 288 289 290 291 292 294 296 296 297 299 299 299 299 299 299 300
260 262 263 266 267 269 271 272 274 275 275 275 274 273 273 274 275 275 276 277 279 280 281 283 284 285 287 288 290 291 291 293 294 296 297 299 299 300 299 299 300 301 301
261 263 265 266 268 270 272 273 275 276 275 275 273 273 274 275 274 275 276 278 279 280 280 282 284 286 287 289 290 291 292 293 295 297 298 298 299 299 299 300 301 302 303
263 264 266 268 270 271 273 274 274 275 275 275 274 273 274 274 275 276 277 278 279 281 282 283 284 285 287 288 289 291 292 293 295 297 298 298 299 299 300 301 302 303 303
263 265 267 269 271 272 273 274 274 274 273 273 274 273 272 273 275 276 277 278 280 282 283 284 285 287 287 287 288 290 291 293 294 296 297 298 299 300 301 302 303 304 304
264 266 268 270 272 273 273 273 273 272 271 270 272 273 273 274 275 276 277 278 280 282 283 285 285 286 285 286 287 289 292 293 295 296 297 299 300 301 302 304 305 305 304
264 266 268 269 271 273 273 273 272 270 269 270 270 271 273 275 276 277 278 280 281 283 284 284 285 285 286 287 288 290 291 293 295 296 298 299 300 302 304 305 305 304 304
264 265 266 268 270 271 273 272 271 270 270 270 271 273 275 276 277 278 279 280 282 283 284 284 284 285 287 287 288 290 291 294 295 296 297 299 301 303 304 306 306 304 305
263 264 266 268 269 269 269 269 269 270 270 271 273 274 275 276 276 278 279 280 282 283 284 283 284 286 288 289 289 290 292 295 296 297 298 299 302 304 306 306 306 305 305
263 265 266 267 268 268 268 268 269 270 272 273 274 274 275 276 278 278 280 282 283 283 283 283 285 287 288 289 290 292 293 295 297 298 299 301 303 305 306 307 307 306 307
264 265 266 266 266 267 268 268 269 271 273 274 274 275 276 277 278 279 280 282 283 283 283 285 286 287 289 290 290 292 293 295 297 297 299 301 303 305 307 308 308 307 308
264 264 265 265 266 267 268 268 269 271 272 273 274 275 276 277 278 280 281 282 282 282 284 286 288 289 291 291 291 292 293 295 296 298 299 301 303 306 307 308 309 309 310
263 263 264 266 267 268 270 269 270 271 272 273 274 275 276 277 278 279 280 281 282 283 285 287 288 290 291 292 293 293 294 294 295 297 299 302 303 306 307 309 311 311 312
Height
5717 5719 5721 5722 5724 5724 5725 5726 5726 5726 5725 5725 5724 5723 5722 5721 5720 5719 5717 5716 5714 5711 5708 5706 5702 5699 5695 5691 5687 5683 5679 5674 5671 5669 5664 5659 5654 5649 5644 5639 5634 5629 5625
5707 5708 5710 5712 5713 5714 5715 5715 5715 5715 5714 5714 5713 5712 5711 5710 5709 5708 5706 5704 5702 5699 5696 5693 5690 5686 5682 5679 5675 5671 5667 5662 5658 5655 5652 5647 5642 5637 5632 5627 5622 5616 5611
5696 5698 5699 5701 5702 5703 5704 5704 5704 5703 5703 5702 5701 5701 5700 5699 5697 5696 5694 5692 5690 5687 5684 5681 5677 5674 5670 5666 5662 5658 5654 5650 5646 5642 5639 5635 5630 5625 5620 5615 5609 5604 5599
5685 5687 5688 5690 5691 5691 5692 5692 5692 5692 5692 5691 5690 5689 5688 5687 5685 5684 5682 5680 5678 5675 5671 5668 5665 5661 5657 5653 5649 5646 5642 5638 5634 5630 5626 5622 5618 5612 5607 5603 5598 5592 5587
5675 5676 5677 5678 5679 5680 5680 5681 5680 5680 5680 5679 5679 5678 5676 5675 5674 5672 5670 5668 5665 5662 5659 5656 5652 5648 5644 5641 5637 5633 5630 5626 5622 5618 5614 5610 5605 5600 5595 5590 5585 5580 5574
5664 5665 5666 5667 5668 5668 5669 5669 5669 5669 5668 5668 5667 5666 5665 5663 5662 5660 5657 5655 5653 5650 5647 5643 5640 5636 5632 5629 5625 5621 5617 5613 5609 5605 5601 5597 5592 5587 5582 5577 5572 5567 5563
5653 5654 5655 5656 5657 5657 5657 5657 5657 5657 5656 5656 5655 5654 5653 5651 5649 5647 5645 5643 5640 5637 5634 5631 5628 5624 5620 5617 5613 5609 5605 5600 5596 5592 5588 5584 5579 5575 5569 5564 5559 5553 5548
5642 5643 5644 5645 5645 5646 5646 5646 5645 5645 5644 5644 5643 5642 5640 5639 5637 5635 5632 5630 5628 5625 5622 5619 5615 5612 5608 5604 5601 5597 5593 5589 5584 5580 5575 5571 5566 5561 5556 5551 5546 5541 5536
5631 5632 5633 5634 5634 5634 5634 5634 5633 5633 5632 5631 5630 5629 5628 5626 5624 5622 5620 5618 5615 5612 5609 5606 5602 5599 5596 5592 5588 5585 5581 5577 5572 5567 5563 5558 5553 5548 5543 5539 5534 5529 5524
5619 5620 5621 5622 5622 5622 5622 5622 5621 5621 5620 5619 5618 5616 5615 5613 5611 5609 5607 5605 5603 5600 5597 5594 5590 5587 5583 5579 5575 5572 5568 5564 5560 5556 5551 5546 5541 5536 5531 5526 5521 5516 5511
5608 5609 5610 5610 5611 5611 5610 5610 5609 5608 5607 5606 5605 5603 5602 5600 5598 5596 5594 5592 5589 5587 5584 5581 5578 5574 5570 5566 5563 5559 5556 5552 5548 5544 5539 5534 5530 5525 5519 5514 5509 5504 5499
5596 5597 5598 5598 5599 5599 5599 5598 5597 5596 5595 5593 5592 5590 5588 5587 5585 5583 5581 5579 5576 5574 5572 5569 5566 5562 5558 5555 5551 5548 5544 5540 5536 5532 5527 5523 5518 5513 5508 5503 5498 5492 5487
5585 5585 5586 5587 5587 5587 5586 5585 5585 5583 5582 5580 5579 5577 5576 5574 5572 5571 5569 5566 5564 5562 5559 5556 5553 5550 5546 5543 5540 5536 5532 5529 5524 5520 5516 5511 5506 5501 5496 5492 5487 5481 5476
5573 5574 5574 5575 5575 5575 5574 5573 5572 5571 5569 5568 5566 5565 5563 5562 5560 5558 5557 5555 5552 5550 5547 5545 5541 5538 5535 5532 5528 5525 5521 5517 5512 5508 5504 5499 5494 5490 5485 5481 5476 5472 5467
5561 5562 5562 5563 5563 5562 5561 5560 5559 5558 5556 5555 5554 5552 5551 5550 5548 5546 5544 5543 5541 5538 5536 5533 5531 5527 5524 5521 5517 5513 5509 5505 5501 5497 5493 5488 5484 5479 5475 5470 5466 5462 5457
5550 5550 5550 5551 5550 5550 5549 5548 5546 5545 5544 5542 5541 5540 5539 5538 5536 5534 5532 5531 5529 5527 5524 5522 5519 5517 5513 5510 5506 5502 5499 5495 5491 5487 5483 5478 5474 5470 5466 5461 5457 5452 5448
5538 5539 5539 5539 5538 5538 5537 5536 5535 5534 5532 5531 5529 5528 5527 5526 5524 5523 5521 5519 5517 5515 5513 5511 5508 5505 5502 5499 5495 5492 5489 5485 5481 5477 5473 5469 5465 5461 5457 5453 5448 5444 5439
5527 5527 5527 5527 5527 5526 5525 5524 5523 5522 5521 5519 5518 5517 5516 5515 5513 5512 5510 5509 5507 5504 5502 5500 5497 5494 5491 5488 5485 5482 5479 5475 5472 5468 5464 5461 5457 5453 5449 5444 5440 5435 5430
5515 5516 5516 5516 5515 5515 5514 5513 5512 5511 5510 5509 5508 5507 5505 5504 5503 5501 5500 5498 5496 5494 5492 5489 5487 5484 5481 5479 5476 5473 5470 5466 5463 5460 5456 5453 5449 5445 5441 5436 5431 5427 5422
5504 5505 5505 5505 5504 5504 5503 5502 5501 5500 5499 5498 5498 5497 5496 5494 5493 5491 5490 5488 5486 5484 5482 5479 5477 5475 5472 5469 5467 5464 5461 5458 5455 5451 5448 5445 5441 5437 5433 5428 5423 5419 5414
5493 5494 5494 5494 5494 5493 5492 5492 5491 5490 5489 5489 5488 5487 5486 5485 5483 5481 5480 5478 5476 5474 5472 5470 5468 5466 5463 5461 5458 5455 5453 5450 5446 5443 5440 5437 5433 5429 5424 5420 5415 5411 5407
5483 5484 5484 5484 5483 5483 5483 5482 5482 5481 5480 5480 5479 5477 5476 5475 5474 5472 5471 5469 5467 5465 5463 5461 5459 5457 5455 5452 5450 5447 5444 5441 5438 5435 5432 5428 5425 5421 5416 5412 5407 5403 5399
5474 5474 5475 5474 5474 5474 5474 5473 5473 5472 5472 5471 5470 5468 5467 5466 5465 5463 5462 5460 5458 5456 5454 5453 5451 5449 5446 5444 5441 5439 5436 5433 5430 5427 5424 5420 5417 5413 5409 5404 5400 5396 5392
5465 5466 5466 5466 5466 5465 5465 5465 5464 5464 5463 5462 5461 5460 5459 5457 5456 5455 5453 5452 5450 5448 5446 5444 5442 5440 5438 5435 5433 5430 5428 5425 5422 5419 5416 5412 5409 5405 5402 5398 5394 5390 5387
5457 5457 5457 5457 5457 5457 5457 5456 5456 5455 5454 5453 5452 5451 5450 5449 5448 5446 5445 5443 5441 5440 5438 5436 5434 5432 5430 5427 5425 5422 5420 5417 5414 5411 5408 5405 5402 5398 5395 5391 5388 5385 5381
5448 5448 5449 5449 5449 5448 5448 5448 5447 5446 5446 5445 5444 5443 5442 5441 5439 5438 5436 5435 5433 5431 5430 5428 5426 5424 5422 5419 5417 5414 5411 5409 5406 5404 5401 5398 5395 5392 5389 5386 5383 5379 5376